Columbia, SC

5:46 AM EDT on March 23, 2017 (GMT -0400)
Columbia Metro

Weather History for KCAE - March, 2014

Change the Weather History Date:

Sunday, March 30, 2014

  Actual Average Record
Temperature  
Mean Temperature 55 °F 59 °F  
Max Temperature 67 °F 72 °F 91 °F (1907)
Min Temperature 42 °F 46 °F 26 °F (1955)
Degree Days  
Heating Degree Days 10 7  
Month to date heating degree days 383 302  
Since 1 July heating degree days 2467 2401  
Cooling Degree Days 0 1  
Month to date cooling degree days 1 18  
Year to date cooling degree days 8 22  
Growing Degree Days 6 (Base 50)    
Moisture  
Dew Point 32 °F    
Average Humidity 43    
Maximum Humidity 65    
Minimum Humidity 20    
Precipitation  
Precipitation 0.00 in 0.12 in 3.24 in (1960)
Month to date precipitation 3.93 3.62  
Year to date precipitation 10.25 10.81  
Sea Level Pressure  
Sea Level Pressure 29.90 in    
Wind  
Wind Speed 14 mph (WNW)    
Max Wind Speed 28 mph    
Max Gust Speed 38 mph    
Visibility 10 miles    
Events      
T = Trace of Precipitation, MM = Missing Value Source: NWS Daily Summary

Daily Weather History Graph

Daily Weather History Graph

Search for Another Location

Airport or City:

Trip Planner

Search our weather history database for the weather conditions in past years. The results will help you decide how hot, cold, wet, or windy it might be!

Date:

Astronomy

Mar. 30, 2014 Rise Set
Actual Time 7:14 AM EDT 7:43 PM EDT
Civil Twilight 6:49 AM EDT 8:08 PM EDT
Nautical Twilight 6:20 AM EDT 8:38 PM EDT
Astronomical Twilight 5:50 AM EDT 9:08 PM EDT
Moon 6:59 AM EDT (3/30) 7:53 PM EDT (3/30)
Length of Visible Light 13h 19m
Length of Day
12h 29m
Waning Crescent, 0% of the Moon is Illuminated
Mar 30
Waning Crescent
Mar 30
New
Apr 7
First Quarter
Apr 15
Full
Apr 22
Last Quarter

Hourly Weather History & Observations

Time (EDT) Temp. Dew Point Humidity Pressure Visibility Wind Dir Wind Speed Gust Speed Precip Events Conditions
12:56 AM 54.0 °F 39.9 °F 59% 29.76 in 10.0 mi West 20.7 mph 29.9 mph N/A   Mostly Cloudy
1:56 AM 52.0 °F 37.9 °F 59% 29.78 in 10.0 mi West 17.3 mph - N/A   Partly Cloudy
2:56 AM 50.0 °F 37.0 °F 61% 29.78 in 10.0 mi West 15.0 mph - N/A   Partly Cloudy
3:56 AM 48.9 °F 36.0 °F 61% 29.78 in 10.0 mi West 17.3 mph 25.3 mph N/A   Clear
4:56 AM 48.0 °F 36.0 °F 63% 29.79 in 10.0 mi West 12.7 mph - N/A   Clear
5:56 AM 46.9 °F 36.0 °F 66% 29.81 in 10.0 mi WNW 13.8 mph - N/A   Clear
6:56 AM 48.9 °F 34.0 °F 56% 29.83 in 10.0 mi WNW 13.8 mph 24.2 mph N/A   Clear
7:56 AM 46.9 °F 36.0 °F 66% 29.88 in 10.0 mi West 12.7 mph - N/A   Clear
8:56 AM 51.1 °F 34.0 °F 52% 29.90 in 10.0 mi WNW 21.9 mph 28.8 mph N/A   Clear
9:56 AM 54.0 °F 34.0 °F 47% 29.91 in 10.0 mi WNW 17.3 mph 27.6 mph N/A   Clear
10:56 AM 57.0 °F 33.1 °F 40% 29.93 in 10.0 mi NW 17.3 mph 29.9 mph N/A   Clear
11:56 AM 60.1 °F 32.0 °F 35% 29.93 in 10.0 mi WNW 23.0 mph 31.1 mph N/A   Clear
12:56 PM 62.1 °F 32.0 °F 32% 29.94 in 10.0 mi WNW 20.7 mph 33.4 mph N/A   Partly Cloudy
1:56 PM 63.0 °F 28.9 °F 28% 29.94 in 10.0 mi NW 18.4 mph 31.1 mph N/A   Partly Cloudy
2:56 PM 64.0 °F 28.9 °F 27% 29.92 in 10.0 mi NW 17.3 mph 29.9 mph N/A   Partly Cloudy
3:56 PM 66.0 °F 28.0 °F 24% 29.92 in 10.0 mi WNW 17.3 mph 28.8 mph N/A   Partly Cloudy
4:56 PM 64.9 °F 27.0 °F 24% 29.92 in 10.0 mi WNW 16.1 mph 25.3 mph N/A   Partly Cloudy
5:56 PM 66.0 °F 25.0 °F 21% 29.94 in 10.0 mi WNW 18.4 mph 24.2 mph N/A   Partly Cloudy
6:56 PM 64.9 °F 26.1 °F 23% 29.94 in 10.0 mi NW 9.2 mph - N/A   Clear
7:56 PM 61.0 °F 27.0 °F 27% 29.97 in 10.0 mi NW 8.1 mph - N/A   Clear
8:56 PM 57.9 °F 28.0 °F 32% 30.00 in 10.0 mi WNW 5.8 mph - N/A   Clear
9:56 PM 51.1 °F 30.0 °F 44% 30.01 in 10.0 mi Calm Calm - N/A   Clear
10:56 PM 52.0 °F 32.0 °F 47% 30.03 in 10.0 mi WNW 4.6 mph - N/A   Clear
11:56 PM 52.0 °F 30.9 °F 45% 30.04 in 10.0 mi North 4.6 mph - N/A   Clear